[[{"header":{"parameterUnit":"m.s-1","parameterCategory":1,"la1":30.2992,"la2":30.254,"lo1":-89.0895,"lo2":-89.0443,"dy":0.0025,"dx":0.0025,"nx":19,"ny":19,"refTime":"2026-05-15T03:00:00:Z","depth":0,"parameterNumber":2,"parameterNumberName":"U-component_of_WINDS"},"data":[0,0,0,-3.57,-3.5701,-3.5762,-3.5762,-3.5866,-3.5868,0,0,0,0,0,0,0,0,0,0,0,-3.5699,-3.57,-3.5699,-3.5701,-3.5762,-3.5762,-3.5866,-3.5868,0,0,0,0,0,0,0,0,0,0,0,-3.5698,-3.57,-3.5701,-3.5702,-3.5762,-3.5762,-3.5866,-3.581,0,0,0,0,0,0,0,0,0,0,-3.5747,-3.5763,-3.5699,-3.5701,-3.5702,-3.5762,-3.5762,-3.5807,-3.5814,-3.5851,0,-3.5889,0,-3.588,-3.5876,-3.5877,0,0,0,-3.5688,-3.5758,-3.5759,-3.5702,-3.5703,-3.5762,-3.5731,-3.5811,-3.5818,-3.586,-3.589,-3.5893,-3.5882,-3.5877,-3.5878,-3.6135,-3.6137,0,0,-3.5685,-3.5719,-3.5754,-3.5764,-3.5758,-3.5729,-3.5733,-3.5815,-3.585,-3.589,-3.5895,-3.5884,-3.5878,-3.5879,-3.6134,-3.6136,0,0,0,-3.5684,-3.5717,-3.5715,-3.5761,-3.577,-3.5731,-3.5736,-3.5846,-3.5843,-3.5896,-3.5885,-3.5879,-3.588,-3.6132,-3.6135,-3.6257,0,0,0,-3.5681,-3.5716,-3.5714,-3.5736,-3.5769,-3.5809,-3.5766,-3.5837,-3.5845,-3.5884,-3.5879,-3.5882,-3.613,-3.6133,-3.6249,-3.6309,0,0,0,-3.5689,-3.5717,-3.5732,-3.5737,-3.5765,-3.5807,-3.5808,-3.5838,-3.5839,-3.5877,-3.5882,-3.6128,-3.6133,-3.6242,-3.6297,-3.6386,0,0,0,-3.5706,-3.584,-3.5734,-3.5879,-3.5765,-3.5883,-3.5807,-3.5893,-3.594,-3.588,-3.613,-3.6134,-3.624,-3.629,-3.6379,-3.6466,-3.6506,0,0,-3.5893,-3.5864,-3.5946,-3.5853,-3.5999,-3.5871,-3.6034,-3.6044,-3.6017,-3.6097,-3.6103,-3.6252,-3.6296,-3.6384,-3.6718,-3.675,0,0,0,-3.6016,-3.6076,-3.6107,-3.6154,-3.6166,-3.6181,-3.6163,-3.6167,-3.6234,-3.6066,-3.6307,-3.6333,-3.6383,-3.6423,-3.645,-3.649,-3.6154,-3.6154,-3.6154,-3.6329,-3.6287,-3.642,-3.6386,-3.6432,-3.6413,-3.6446,-3.6447,-3.6391,-3.6449,-3.6473,-3.6681,-3.6729,-3.6749,-3.6791,-3.6516,-3.6516,-3.6517,-3.6517,-3.6599,-3.6676,-3.6599,-3.67,-3.6655,-3.6739,-3.6725,-3.6683,-3.6754,-3.666,-3.6701,-3.6601,-3.6785,-3.682,-3.6526,-3.6524,-3.6523,-3.6522,-3.6522,-3.6798,-3.6828,-3.6831,-3.6893,-3.6947,-3.6907,-3.6979,-3.6935,-3.6894,-3.6935,-3.6954,-3.6952,-3.6944,-3.6948,-3.6949,-3.6949,-3.695,-3.695,-3.6951,-3.7003,-3.7003,-3.7069,-3.7093,-3.7117,-3.7143,-3.7125,-3.7147,-3.716,-3.7122,-3.7122,-3.706,-3.6812,-3.6749,-3.6962,-3.696,-3.6959,-3.6958,-3.6957,-3.729,-3.7218,-3.7321,-3.7346,-3.7369,-3.7425,-3.7368,-3.7417,-3.7428,-3.7465,-3.7394,-3.7218,-3.7184,-3.7162,-3.7111,-3.7404,-3.7404,-3.7404,-3.7404,-3.7458,-3.7436,-3.7531,-3.7572,-3.7608,-3.7567,-3.7683,-3.7671,-3.7646,-3.7651,-3.7602,-3.753,-3.751,-3.7487,-3.7459,-3.7409,-3.7772,-3.7772,-3.7773,-3.7631,-3.7611,-3.7719,-3.7695,-3.771,-3.7725,-3.7832,-3.7882,-3.7839,-3.7787,-3.7653,-3.7637,-3.752,-3.7485,-3.7428,-3.7385,-3.7294,0,0]},{"header":{"parameterUnit":"m.s-1","parameterCategory":1,"la1":30.2992,"la2":30.254,"lo1":-89.0895,"lo2":-89.0443,"dy":0.0025,"dx":0.0025,"nx":19,"ny":19,"refTime":"2026-05-15T03:00:00:Z","depth":0,"parameterNumber":3,"parameterNumberName":"V-component_of_WINDS"},"data":[0,0,0,0.1702,0.1702,0.1686,0.1685,0.1677,0.1677,0,0,0,0,0,0,0,0,0,0,0,0.1714,0.1714,0.1702,0.1702,0.1686,0.1685,0.1677,0.1677,0,0,0,0,0,0,0,0,0,0,0,0.1714,0.1714,0.1715,0.1702,0.1686,0.1685,0.1677,0.1685,0,0,0,0,0,0,0,0,0,0,0.1699,0.1717,0.1714,0.1715,0.1702,0.1686,0.1685,0.1686,0.1685,0.169,0,0.1696,0,0.1687,0.1678,0.1678,0,0,0,0.1697,0.1717,0.1707,0.1715,0.1702,0.1686,0.1692,0.1685,0.1684,0.1689,0.1696,0.1695,0.1687,0.1678,0.1678,0.1726,0.1726,0,0,0.1698,0.1715,0.1707,0.1707,0.1709,0.1692,0.1691,0.1684,0.1693,0.1696,0.1695,0.1686,0.1678,0.1678,0.1725,0.1726,0,0,0,0.1704,0.1716,0.1705,0.1707,0.1703,0.1692,0.1691,0.1693,0.1688,0.1695,0.1686,0.1678,0.1678,0.1725,0.1726,0.1766,0,0,0,0.1704,0.1719,0.1706,0.1716,0.1704,0.1698,0.17,0.1688,0.1687,0.1686,0.1678,0.1678,0.1724,0.1725,0.1764,0.1783,0,0,0,0.1713,0.172,0.172,0.1717,0.171,0.1697,0.1692,0.1688,0.1682,0.1678,0.1678,0.1724,0.1725,0.1762,0.1779,0.1802,0,0,0,0.1727,0.1756,0.1721,0.175,0.1711,0.1722,0.1692,0.1699,0.17,0.1678,0.1724,0.1725,0.1761,0.1777,0.18,0.1824,0.1836,0,0,0.1773,0.1762,0.1777,0.1746,0.1769,0.1724,0.1752,0.1736,0.172,0.1725,0.1726,0.1765,0.1779,0.1801,0.1893,0.1903,0,0,0,0.1798,0.1809,0.1812,0.1813,0.1802,0.1795,0.1773,0.1768,0.1771,0.1726,0.1778,0.1786,0.1798,0.1809,0.1817,0.1828,0.1731,0.1731,0.1731,0.1887,0.1865,0.1891,0.1868,0.187,0.1848,0.1848,0.1837,0.1814,0.1827,0.1829,0.1887,0.1901,0.1906,0.1918,0.1839,0.1839,0.1839,0.1839,0.1953,0.1967,0.1937,0.195,0.1928,0.194,0.1921,0.1904,0.1913,0.1883,0.1893,0.1864,0.1917,0.1926,0.1842,0.1842,0.1841,0.1841,0.1841,0.201,0.2013,0.2006,0.2008,0.2012,0.1988,0.1998,0.1977,0.1957,0.1967,0.1967,0.1967,0.1964,0.1968,0.1968,0.1969,0.1969,0.1969,0.1969,0.2071,0.2063,0.2073,0.2066,0.2066,0.2062,0.2042,0.2042,0.2036,0.2019,0.2019,0.1996,0.1926,0.191,0.1972,0.1972,0.1971,0.1971,0.1971,0.2148,0.2128,0.2145,0.2144,0.2135,0.2142,0.2115,0.2116,0.2112,0.2119,0.2094,0.2045,0.2032,0.2026,0.2012,0.2097,0.2097,0.2097,0.2097,0.2197,0.2188,0.2202,0.2204,0.2203,0.2181,0.2203,0.2189,0.2171,0.2168,0.2152,0.2132,0.2126,0.2117,0.2108,0.2095,0.22,0.22,0.22,0.2243,0.2234,0.2256,0.2239,0.223,0.2224,0.2245,0.2249,0.2224,0.2204,0.2165,0.2161,0.2128,0.2118,0.2097,0.2084,0.206,0,0]}]]